Regional Weather Roundup
Issued by NWS

Home | Current Version | Previous Version | Text Only | Print | Product List | Glossary On
Versions: 1 2 3 4 5 6 7 8 9 10 11 12 13 14 15 16 17 18 19 20 21 22 23 24 25 26 27
000
ASUS45 KBOI 310410
RWRID

IDAHO REGIONAL WEATHER ROUNDUP
NATIONAL WEATHER SERVICE BOISE ID
1000 PM MDT FRI JUL 30 2021

NOTE: "FAIR" INDICATES FEW OR NO CLOUDS BELOW 12000 FEET
WITH NO SIGNIFICANT WEATHER AND/OR OBSTRUCTIONS TO VISIBILITY

IDZ012-014-310500-
SOUTHWEST IDAHO


CITY           SKY/WX    TMP DP  RH WIND       PRES   REMARKS
BOISE          MOCLDY    88  51  28 E18       30.00R
CALDWELL       MOCLDY    88  56  33 E13       29.95R
MOUNTAIN HOME  CLOUDY    85  51  30 NE18      30.01R
$$

IDZ016-017-310500-
SOUTHCENTRAL IDAHO


CITY           SKY/WX    TMP DP  RH WIND       PRES   REMARKS
BURLEY         MOCLDY    72  59  63 NE13      30.15R
JEROME         MOCLDY    76  55  48 E15       30.13R
TWIN FALLS     PTCLDY    76  56  49 E8        30.16R
$$

IDZ019>023-310500-
SOUTHEAST IDAHO


CITY           SKY/WX    TMP DP  RH WIND       PRES   REMARKS
IDAHO FALLS    MOCLDY    69  58  67 N13       30.26R
POCATELLO      CLOUDY    74  54  49 N14       30.22R
REXBURG        LGT RAIN  68  61  78 NW5       30.27R
$$

IDZ006-010-011-018-031-032-310500-
CENTRAL IDAHO MOUNTAINS


CITY           SKY/WX    TMP DP  RH WIND       PRES   REMARKS
MCCALL         CLOUDY    84  40  21 NE10      30.14R
HAILEY         CLOUDY    70  59  68 NW8       30.30R
STANLEY          N/A     71  48  43 S9        30.31R
SALMON         MOCLDY    80  50  34 CALM      30.12R
CHALLIS        PTCLDY    77  51  40 SE15G26   30.21R
$$

IDZ002-004-006-007-026-310500-
NORTHERN IDAHO


CITY           SKY/WX    TMP DP  RH WIND       PRES   REMARKS
LEWISTON       PTCLDY    99  40  13 NE8       29.89R HX  94
LOWELL           N/A     77  61  57 CALM      29.93R
COEUR D`ALENE  CLEAR     83  46  27 E6        30.02S
MULLAN PASS    CLOUDY    76  30  18 CALM      30.32S
$$



USA.gov is the U.S. government's official web portal to all federal, state and local government web resources and services.